Change the Weather History Date:

Tuesday, February 5, 2013

  Actual Average Record
Temperature  
Mean Temperature 68 °F -  
Max Temperature 73 °F 74 °F 78 °F (1997)
Min Temperature 62 °F 61 °F 54 °F (2011)
Cooling Degree Days 2    
Growing Degree Days 18 (Base 50)    
Moisture  
Dew Point 59 °F    
Average Humidity 79    
Maximum Humidity 90    
Minimum Humidity 56    
Precipitation  
Precipitation 0.08 in - - ()
Sea Level Pressure  
Sea Level Pressure 30.07 in    
Wind  
Wind Speed 5 mph (NE)    
Max Wind Speed 14 mph    
Max Gust Speed 23 mph    
Visibility 10 miles    
Events Rain    
Averages and records for this station are not official NWS values.
T = Trace of Precipitation, MM = Missing Value Source: NWS Daily Summary

Daily Weather History Graph

Daily Weather History Graph

Search for Another Location

Airport or City:

Trip Planner

Search our weather history database for the weather conditions in past years. The results will help you decide how hot, cold, wet, or windy it might be!

Date:

Astronomy

Feb. 05, 2013 Rise Set
Actual Time 7:07 AM HST 6:24 PM HST
Civil Twilight 6:44 AM HST 6:47 PM HST
Nautical Twilight 6:18 AM HST 7:14 PM HST
Astronomical Twilight 5:52 AM HST 7:40 PM HST
Moon 2:49 AM HST (2/5) 2:06 PM HST (2/5)
Length of Visible Light 12h 02m
Length of Day
11h 16m
Waning Crescent, 24% of the Moon is Illuminated
Feb 5
Waning Crescent
Feb 9
New
Feb 17
First Quarter
Feb 25
Full
Mar 4
Last Quarter

Hourly Weather History & Observations

Time (HST) Temp. Dew Point Humidity Pressure Visibility Wind Dir Wind Speed Gust Speed Precip Events Conditions
12:01 AM 68.0 °F 59.0 °F 73% 30.09 in 10.0 mi NNE 6.9 mph - N/A Rain Light Rain
12:34 AM 66.2 °F 60.8 °F 83% 30.09 in 10.0 mi ENE 4.6 mph - N/A   Partly Cloudy
12:46 AM 66.2 °F 60.8 °F 83% 30.09 in 10.0 mi Calm Calm - N/A   Light Drizzle
12:55 AM 65.5 °F 60.6 °F 84% 30.09 in 7.0 mi ENE 4.6 mph - 0.00 in Rain Light Rain
1:43 AM 64.4 °F 60.8 °F 88% 30.08 in 6.0 mi Calm Calm - N/A   Light Drizzle
1:55 AM 63.7 °F 60.8 °F 90% 30.07 in 7.0 mi Calm Calm - 0.02 in Rain Light Rain
1:58 AM 64.4 °F 60.8 °F 88% 30.07 in 10.0 mi Calm Calm - N/A   Mostly Cloudy
2:55 AM 64.0 °F 60.8 °F 89% 30.06 in 10.0 mi Calm Calm - 0.00 in   Overcast
3:55 AM 62.2 °F 59.2 °F 90% 30.05 in 10.0 mi NW 4.6 mph - N/A   Mostly Cloudy
4:34 AM 62.6 °F 59.0 °F 88% 30.05 in 10.0 mi NNW 3.5 mph - N/A   Light Drizzle
4:44 AM 64.4 °F 60.8 °F 88% 30.04 in 10.0 mi Calm Calm - N/A   Mostly Cloudy
4:55 AM 64.0 °F 59.9 °F 86% 30.04 in 10.0 mi Calm Calm - 0.00 in   Overcast
5:14 AM 64.4 °F 59.0 °F 83% 30.05 in 10.0 mi Calm Calm - N/A   Light Drizzle
5:24 AM 64.4 °F 59.0 °F 83% 30.05 in 10.0 mi SSW 3.5 mph - N/A   Mostly Cloudy
5:55 AM 64.8 °F 59.7 °F 84% 30.05 in 10.0 mi Calm Calm - 0.00 in   Mostly Cloudy
6:55 AM 64.0 °F 59.4 °F 85% 30.06 in 10.0 mi Calm Calm - N/A   Overcast
8:55 AM 64.0 °F 59.4 °F 85% 30.13 in 10.0 mi East 11.5 mph - N/A   Mostly Cloudy
9:55 AM 70.5 °F 57.2 °F 63% 30.14 in 10.0 mi East 13.8 mph 21.9 mph N/A   Clear
10:55 AM 70.5 °F 57.2 °F 63% - 10.0 mi East 11.5 mph 23.0 mph N/A   Mostly Cloudy
11:55 AM 70.5 °F 57.2 °F 63% - 10.0 mi ENE 11.5 mph 17.3 mph N/A   Mostly Cloudy
12:55 PM 70.5 °F 57.2 °F 63% - 10.0 mi ENE 11.5 mph 17.3 mph N/A   Overcast
1:55 PM 70.5 °F 57.2 °F 63% 30.04 in 10.0 mi ENE 11.5 mph 17.3 mph N/A   Overcast
2:55 PM 70.5 °F 57.2 °F 63% 30.08 in 10.0 mi East 11.5 mph 17.3 mph N/A   Overcast
3:55 PM 73.6 °F 57.2 °F 56% 30.01 in 10.0 mi East 10.4 mph 19.6 mph N/A   Mostly Cloudy
4:01 PM 73.6 °F 57.2 °F 56% 30.07 in 10.0 mi East 10.4 mph 19.6 mph N/A   Mostly Cloudy
4:55 PM 70.3 °F 57.9 °F 65% 30.03 in 10.0 mi NNE 8.1 mph - N/A   Overcast
5:55 PM 68.0 °F 59.9 °F 75% 30.05 in 10.0 mi NE 9.2 mph - 0.01 in   Scattered Clouds
6:55 PM 66.0 °F 60.4 °F 82% 30.08 in 10.0 mi North 8.1 mph - 0.01 in   Partly Cloudy
7:55 PM 64.4 °F 60.8 °F 88% 30.08 in 10.0 mi Calm Calm - 0.03 in   Scattered Clouds
8:00 PM 64.4 °F 60.8 °F 88% 30.13 in 10.0 mi Calm Calm - 0.03 in   Scattered Clouds
8:55 PM 64.0 °F 61.2 °F 90% 30.09 in 10.0 mi NE 3.5 mph - 0.00 in   Clear
9:55 PM 64.2 °F 60.6 °F 88% 30.08 in 10.0 mi NNE 6.9 mph - N/A   Scattered Clouds
10:55 PM 62.8 °F 59.7 °F 90% 30.09 in 10.0 mi WNW 6.9 mph - N/A   Scattered Clouds